#timestamp,LO_Frequency,Hit,StdDev 
1543870815.9,286047003.8,N
1543870835.7,286047006.5,Y
1543870855.6,286047011.9,P
1543870875.4,286047007.8,N
1543870895.2,286047007.3,N
1543870915.1,286047003.5,N
1543870916.0,286047003.5,N
1543870935.8,286047004.7,N
1543870955.7,286047004.8,N
1543870975.5,286047004.8,N
1543870995.3,286047006.8,N
1543871015.2,286047006.0,N
1543871035.0,286047002.1,N
1543871035.9,286047002.1,N
1543871055.7,286047003.7,N
1543871075.6,286047001.6,N
1543871095.4,286047000.3,N
1543871115.3,286047000.1,N
1543871135.1,286047002.3,N
1543871136.0,286047002.3,N
1543871155.8,286047002.7,N
1543871175.7,286047001.4,N
1543871195.5,286047001.5,N
1543871215.4,286047000.3,N
1543871235.2,286046998.5,N
1543871255.0,286047001.4,N
1543871255.9,286047001.4,N
1543871275.8,286047003.4,N
1543871295.6,286047005.4,N
1543871315.4,286047005.2,N
1543871335.3,286047003.7,N
1543871355.1,286047001.5,N
1543871375.9,286047005.3,N
1543871395.7,286047003.3,N
1543871415.5,286047002.5,N
1543871435.4,286047000.6,N
1543871455.2,286047002.6,N
1543871475.1,286047004.2,N
1543871476.0,286047004.2,N
1543871495.8,286047002.5,N
1543871515.6,286047001.6,N
1543871535.5,286047002.5,N
1543871555.3,286047002.7,N
1543871575.1,286047002.6,N
1543871595.9,286047002.5,N
1543871615.7,286047005.9,Y
1543871635.6,286046998.7,P
1543871655.4,286046998.5,N
1543871675.2,286046998.4,N
1543871695.1,286047002.4,N
1543871696.0,286047002.4,N
1543871715.8,286047002.5,N
1543871735.7,286047011.9,Y
1543871755.5,286047000.2,P
1543871775.3,286046996.5,P
1543871795.2,286046995.4,N
1543871815.0,286046999.2,N
1543871815.9,286046999.2,N
1543871835.7,286047001.1,N
1543871855.6,286046998.2,N
1543871875.4,286046998.4,N
1543871895.3,286046998.9,N
1543871915.1,286046996.7,N
1543871916.0,286046996.7,N
1543871935.8,286046997.3,N
1543871955.7,286046998.8,N
1543871975.5,286046997.3,N
1543871995.3,286046998.0,N
1543872015.2,286046995.5,N
1543872035.0,286046997.1,N
1543872035.9,286046997.1,N
1543872055.8,286046995.4,N
1543872075.6,286046996.1,N
1543872095.4,286046995.8,N
1543872115.3,286046995.5,N
1543872135.1,286046996.2,N
1543872155.9,286046993.6,Y
1543872175.7,286046995.7,P
1543872195.5,286046995.7,P
1543872215.4,286046993.6,P
1543872235.2,286046996.2,N
1543872255.0,286046993.5,Y
1543872256.0,286046993.5,P
1543872275.8,286046996.6,P
1543872295.6,286047001.2,N
1543872315.5,286046998.9,N
1543872335.3,286046998.7,N
1543872355.1,286046999.8,N
1543872375.9,286047000.3,N
1543872395.7,286047000.8,N
1543872415.5,286046998.3,N
1543872435.4,286047003.9,N
1543872455.2,286047002.3,N
1543872475.1,286047001.9,N
1543872476.0,286047001.9,N
1543872495.8,286047000.4,N
1543872515.6,286046999.8,N
1543872535.5,286047000.9,N
1543872555.3,286046997.2,N
1543872575.2,286046996.8,N
1543872595.9,286046998.4,N
1543872615.7,286047002.2,N
1543872635.6,286047001.2,N
1543872655.4,286046999.0,N
1543872675.2,286047000.6,N
1543872695.1,286047002.6,N
1543872696.0,286047002.6,N
1543872715.8,286047000.2,N
1543872735.7,286046996.5,N
1543872755.5,286046995.1,N
1543872775.3,286046998.0,N
1543872795.2,286046996.9,N
1543872815.0,286046997.6,N
1543872815.9,286046997.6,N
1543872835.7,286046999.0,N
1543872855.6,286046998.4,N
1543872875.4,286047003.0,N
1543872895.3,286047002.8,N
1543872915.1,286047000.7,N
1543872916.0,286047000.7,N
1543872935.8,286046999.7,N
1543872955.7,286046998.8,N
1543872975.5,286046998.8,N
1543872995.4,286046998.3,N
1543873015.2,286046998.4,N
1543873035.0,286047001.0,N
1543873035.9,286047001.0,N
1543873055.8,286047002.5,N
1543873075.6,286047000.6,N
1543873095.4,286047001.4,N
1543873115.3,286047001.5,N
1543873135.1,286047000.0,N
1543873155.9,286047002.7,N
1543873175.7,286046998.1,N
1543873195.5,286046999.9,N
1543873215.4,286046998.3,N
1543873235.2,286046996.7,N
1543873255.0,286046997.2,N
1543873256.0,286046997.2,N
1543873275.8,286046995.2,N
1543873295.6,286046997.0,N
1543873315.5,286046996.6,N
1543873335.3,286047002.4,N
1543873355.1,286046998.3,N
1543873375.9,286047001.2,N
1543873395.7,286046997.3,N
1543873415.6,286046995.3,N
1543873435.4,286046995.4,N
1543873455.2,286046997.4,N
1543873475.1,286046997.7,N
1543873476.0,286046997.7,N
1543873495.8,286046999.2,N
1543873515.6,286047003.9,N
1543873535.5,286047002.3,N
1543873555.3,286047002.4,N
1543873575.2,286047000.0,N
1543873595.9,286047002.6,N
1543873615.7,286047000.1,N
1543873635.6,286047001.1,N
1543873655.4,286046998.8,N
1543873675.2,286046998.2,N
1543873695.1,286047000.7,N
1543873696.0,286047000.7,N
1543873715.8,286047000.6,N
1543873735.7,286047002.8,N
1543873755.5,286047002.0,N
1543873775.3,286047000.6,N
1543873795.2,286046996.6,N
1543873815.0,286046997.9,N
1543873815.9,286046997.9,N
1543873835.8,286046996.8,N
1543873855.6,286046996.8,N
1543873875.4,286047000.5,N
1543873895.3,286047001.0,N
1543873915.1,286046998.3,N
1543873935.8,286046999.1,N
1543873955.7,286046997.3,N
1543873975.5,286046999.0,N
1543873995.4,286046998.5,N
1543874015.2,286046997.0,N
1543874035.0,286046995.6,N
1543874035.9,286046995.6,N
1543874055.8,286046997.1,N
1543874075.6,286046997.6,N
1543874095.4,286046996.6,N
1543874115.3,286046999.1,N
1543874135.1,286046997.6,N
1543874155.9,286046995.3,N
1543874175.7,286046998.7,N
1543874195.5,286046998.9,N
1543874215.4,286047002.8,N
1543874235.2,286046998.1,N
1543874255.0,286046998.1,N
1543874255.9,286046998.1,N
1543874275.8,286046999.3,N
1543874295.6,286046998.9,N
1543874315.5,286046998.9,N
1543874335.3,286046999.5,N
1543874355.1,286046999.0,N
1543874375.9,286046999.1,N
1543874395.7,286046995.1,Y
